Simultaneous Nadir Overpasses (SNOs) Predictions

Prediction of SNOs between LANDSAT-8 and TERRA Satellite Orbit:

Table of predicted SNOs for the next 14.0 days since TLE Epoch: 5/24/2023
Index Date (LANDSAT-8) Time (LANDSAT-8) Lat,Lon (LANDSAT-8) SZA (LANDSAT-8 ) Date (TERRA) Time (TERRA) Lat,Lon (TERRA) SZA (TERRA ) Distance(km) Time Diff (sec)
1 06/07/2023 02:52:28 81.23, 178.60 60.88 06/07/2023 02:53:41 81.45, 178.28 61.03 24.84 73
2 06/07/2023 03:39:52 -80.79, 35.49 112.29 06/07/2023 03:41:01 -80.78, 35.58 112.23 1.75 69
3 06/07/2023 04:29:18 80.77,-156.69 67.74 06/07/2023 04:30:23 80.77,-156.63 67.80 1.18 65
4 06/07/2023 05:18:42 -80.70, 11.79 112.13 06/07/2023 05:19:43 -80.71, 11.69 112.10 1.84 61
5 06/07/2023 06:08:08 80.69, 179.61 67.91 06/07/2023 06:09:05 80.70, 179.49 67.92 2.44 57
6 06/07/2023 06:57:35 -80.70, -12.92 112.13 06/07/2023 06:58:27 -80.70, -12.85 112.08 1.34 52
7 06/07/2023 07:47:00 80.66, 155.23 67.96 06/07/2023 07:47:48 80.65, 155.27 68.00 0.74 48
8 06/07/2023 08:36:25 -80.61, -36.64 111.97 06/07/2023 08:37:09 -80.62, -36.75 111.96 2.25 44
9 06/07/2023 09:25:50 80.57, 131.50 68.12 06/07/2023 09:26:30 80.58, 131.36 68.12 2.88 40
10 06/07/2023 10:15:17 -80.58, -61.03 111.92 06/07/2023 10:15:52 -80.58, -60.98 111.89 0.92 35
11 06/07/2023 11:04:43 80.57, 106.79 68.12 06/07/2023 11:05:14 80.57, 106.81 68.14 0.30 31
12 06/07/2023 11:54:07 -80.49, -84.77 111.75 06/07/2023 11:54:34 -80.50, -84.90 111.76 2.67 27
13 06/07/2023 12:43:32 80.44, 83.37 68.33 06/07/2023 12:43:55 80.46, 83.21 68.32 3.31 23
14 06/07/2023 13:32:59 -80.46,-109.17 111.70 06/07/2023 13:33:17 -80.46,-109.14 111.69 0.51 18
15 06/07/2023 14:22:25 80.44, 58.66 68.33 06/07/2023 14:22:39 80.44, 58.65 68.34 0.14 14



Historial Predications of SNOs between LANDSAT-8 and TERRA
